This demonstration page uses our WeatherBlox Daily Observations layout. Learn more.

Left ArrowRight Arrow

39.92423, -83.80882

Hourly Observations for February 16, 2020

Temp ( °F °C ) Dew Point ( °F °C ) Humidity (%) Winds ( mph kmh ) Pressure ( in mb ) Visibility ( mi km ) Precip ( " mm )
12:56 am 00:56 Cloudy 37 2.8 25 -3.9 62 62 WSW 8 13 30.16 1021 10 16 N/A
1:56 am 01:56 Cloudy 37 2.8 25 -3.9 62 62 WSW 10 17 30.15 1021 10 16 N/A
2:56 am 02:56 Cloudy 37 2.8 25 -3.9 62 62 WSW 8 13 30.14 1021 10 16 N/A
3:56 am 03:56 Cloudy 36 2.2 26 -3.3 67 67 SW 6 9 30.14 1021 10 16 N/A
4:56 am 04:56 Cloudy 36 2.2 25 -3.9 64 64 SSW 5 7 30.13 1020 10 16 N/A
5:56 am 05:56 Cloudy 36 2.2 26 -3.3 67 67 SSW 5 7 30.13 1020 10 16 N/A
6:56 am 06:56 Cloudy 36 2.2 26 -3.3 67 67 SSW 3 6 30.13 1020 10 16 N/A
7:56 am 07:56 Cloudy 36 2.2 26 -3.3 67 67 SSW 6 9 30.13 1020 10 16 0.11 2.79
8:56 am 08:56 Cloudy 36 2.2 27 -2.8 70 70 SW 5 7 30.14 1021 10 16 0.04 1.02
9:56 am 09:56 Cloudy 36 2.2 27 -2.8 70 70 SSW 6 9 30.14 1021 10 16 0.10 2.54
10:56 am 10:56 Cloudy 36 2.2 29 -1.7 76 76 SW 5 7 30.13 1020 10 16 0.23 5.84
11:56 am 11:56 Cloudy 37 2.8 29 -1.7 73 73 W 3 6 30.14 1021 10 16 0.01 0.25
12:56 pm 12:56 Cloudy 38 3.3 29 -1.7 70 70 W 7 11 30.12 1020 10 16 0.04 1.02
1:56 pm 13:56 Cloudy 40 4.4 30 -1.1 68 68 W 7 11 30.10 1019 10 16 0.03 0.76
2:56 pm 14:56 Partly Cloudy 44 6.7 32 undefined 63 63 W 9 15 30.09 1019 10 16 0.02 0.51
3:56 pm 15:56 Sunny 45 7.2 31 -0.6 58 58 WNW 10 17 30.10 1019 10 16 N/A
4:56 pm 16:56 Sunny 43 6.1 31 -0.6 63 63 N 10 17 30.11 1020 10 16 N/A
5:56 pm 17:56 Sunny 38 3.3 29 -1.7 70 70 NNW 6 9 30.13 1020 10 16 N/A
6:56 pm 18:56 Clear 34 1.1 30 -1.1 85 85 N 5 7 30.16 1021 10 16 N/A
7:56 pm 19:56 Clear 34 1.1 30 -1.1 85 85 N N/A 30.16 1022 10 16 0.05 1.27
8:56 pm 20:56 Clear 32 undefined 30 -1.1 92 92 N N/A 30.16 1021 10 16 1.25 31.75
9:56 pm 21:56 Clear 30 -1.1 30 -1.1 100 100 NNE 3 6 30.17 1022 10 16 1.98 50.29
10:56 pm 22:56 Clear 30 -1.1 30 -1.1 100 100 N N/A 30.19 1022 10 16 0.78 19.81
11:56 pm 23:56 Clear with Mist and Fog 26 -3.3 26 -3.3 100 100 E 3 6 30.17 1022 6 10 N/A

Powered by AerisWeather